AAL300 KJFK-KLAX

Flight info

Callsign AAL300
Flight time N/A
Altitude 36000
Route SKORR6 RNGRR RBV Q430 SAAME BRNAN Q42 HIDON EMPTY SCOTO ENL MAHER LBL KA42W RSK RHYSS PLNDL PRFUM DNERO ANJLL4
Aircraft B77W/H-SDE1E2E3FGHIJ2J3J4J5M1RWXY/LB1D1

Departure

Time 2026-05-03 20:26
Airport John F. Kennedy International Airport (KJFK)

Arrival

Time N/A
Airport Los Angeles International Airport (KLAX)
Time Latitude Longitude Altitude Speed Heading
2026-05-03 20:15 40.63664 -73.78806 32 ft 20 kts 120°
2026-05-03 20:15 40.63593 -73.78647 31 ft 20 kts 120°
2026-05-03 20:15 40.63523 -73.78487 32 ft 20 kts 120°
2026-05-03 20:15 40.63450 -73.78329 30 ft 20 kts 122°
2026-05-03 20:16 40.63377 -73.78171 30 ft 20 kts 118°
2026-05-03 20:16 40.63326 -73.78009 29 ft 10 kts 100°
2026-05-03 20:16 40.63317 -73.77914 30 ft 10 kts 97°
2026-05-03 20:16 40.63303 -73.77821 32 ft 10 kts 107°
2026-05-03 20:17 40.63269 -73.77725 32 ft 12 kts 117°
2026-05-03 20:17 40.63232 -73.77641 33 ft 12 kts 120°
2026-05-03 20:17 40.63191 -73.77546 34 ft 12 kts 116°
2026-05-03 20:17 40.63149 -73.77451 34 ft 12 kts 120°
2026-05-03 20:18 40.63106 -73.77357 32 ft 12 kts 121°
2026-05-03 20:18 40.63065 -73.77269 32 ft 10 kts 121°
2026-05-03 20:18 40.63036 -73.77212 31 ft 7 kts 134°
2026-05-03 20:18 40.62991 -73.77197 31 ft 7 kts 185°
2026-05-03 20:19 40.62957 -73.77213 31 ft 5 kts 211°
2026-05-03 20:19 40.62948 -73.77221 31 ft 0 kts 211°
2026-05-03 20:23 40.62945 -73.77222 31 ft 1 kts 211°
2026-05-03 20:23 40.62933 -73.77232 31 ft 5 kts 211°
2026-05-03 20:24 40.62886 -73.77274 30 ft 9 kts 227°
2026-05-03 20:24 40.62871 -73.77344 31 ft 5 kts 262°
2026-05-03 20:24 40.62874 -73.77391 32 ft 5 kts 285°
2026-05-03 20:24 40.62901 -73.77444 33 ft 11 kts 308°
2026-05-03 20:25 40.63006 -73.77640 35 ft 52 kts 303°
2026-05-03 20:25 40.63319 -73.78323 27 ft 120 kts 301°
2026-05-03 20:25 40.63840 -73.79464 30 ft 172 kts 302°
2026-05-03 20:25 40.64496 -73.80902 412 ft 181 kts 302°
2026-05-03 20:26 40.65161 -73.82306 1109 ft 183 kts 302°
2026-05-03 20:26 40.65623 -73.83671 1711 ft 186 kts 279°
2026-05-03 20:26 40.65380 -73.85366 2246 ft 199 kts 244°
2026-05-03 20:26 40.64327 -73.86615 2826 ft 214 kts 211°
2026-05-03 20:27 40.62920 -73.87336 3372 ft 220 kts 208°
2026-05-03 20:27 40.61468 -73.88061 3959 ft 224 kts 208°
2026-05-03 20:27 40.60016 -73.88783 4627 ft 222 kts 212°
2026-05-03 20:27 40.58778 -73.89944 4927 ft 224 kts 235°
2026-05-03 20:28 40.57693 -73.91560 5141 ft 246 kts 234°
2026-05-03 20:28 40.56495 -73.93245 5670 ft 256 kts 232°
2026-05-03 20:28 40.55077 -73.94759 6232 ft 270 kts 220°
2026-05-03 20:28 40.53454 -73.96083 6926 ft 276 kts 217°
2026-05-03 20:29 40.51795 -73.97367 7678 ft 278 kts 217°
2026-05-03 20:29 40.50127 -73.98667 8385 ft 281 kts 218°
2026-05-03 20:29 40.48439 -74.00002 9067 ft 284 kts 218°
2026-05-03 20:29 40.46739 -74.01355 9758 ft 287 kts 218°
2026-05-03 20:30 40.45047 -74.02719 10378 ft 294 kts 218°
2026-05-03 20:30 40.43248 -74.04182 10628 ft 316 kts 218°
2026-05-03 20:30 40.41308 -74.05767 10854 ft 340 kts 217°
2026-05-03 20:30 40.39222 -74.07467 11100 ft 362 kts 217°
2026-05-03 20:31 40.37046 -74.09231 11758 ft 372 kts 216°
2026-05-03 20:31 40.34827 -74.11023 12626 ft 376 kts 216°
2026-05-03 20:31 40.32619 -74.12809 13547 ft 379 kts 216°
2026-05-03 20:31 40.30369 -74.14631 14453 ft 382 kts 216°
2026-05-03 20:32 40.28093 -74.16474 15326 ft 386 kts 216°
2026-05-03 20:32 40.26026 -74.18160 16034 ft 386 kts 218°
2026-05-03 20:32 40.24054 -74.20497 16647 ft 382 kts 238°
2026-05-03 20:32 40.22833 -74.23561 17367 ft 380 kts 254°
2026-05-03 20:33 40.22275 -74.26922 18209 ft 378 kts 265°
2026-05-03 20:33 40.21966 -74.30355 18951 ft 382 kts 265°
2026-05-03 20:33 40.21673 -74.33826 19669 ft 386 kts 265°
2026-05-03 20:33 40.21366 -74.37336 20374 ft 390 kts 265°
2026-05-03 20:34 40.21039 -74.40874 21085 ft 393 kts 265°
2026-05-03 20:34 40.20697 -74.44438 21759 ft 397 kts 264°
2026-05-03 20:34 40.20346 -74.48032 22414 ft 400 kts 264°
2026-05-03 20:34 40.20005 -74.51663 23031 ft 404 kts 265°
2026-05-03 20:35 40.19713 -74.55285 23623 ft 407 kts 266°
2026-05-03 20:35 40.19434 -74.58984 24216 ft 410 kts 266°
2026-05-03 20:35 40.19157 -74.62707 24790 ft 413 kts 265°
2026-05-03 20:35 40.18873 -74.66461 25338 ft 417 kts 266°
2026-05-03 20:36 40.18583 -74.70250 25846 ft 420 kts 265°
2026-05-03 20:36 40.18288 -74.74065 26352 ft 423 kts 265°
2026-05-03 20:36 40.17987 -74.77908 26827 ft 426 kts 265°
2026-05-03 20:36 40.17681 -74.81777 27310 ft 429 kts 265°
2026-05-03 20:37 40.17370 -74.85678 27756 ft 432 kts 265°
2026-05-03 20:37 40.17056 -74.89600 28187 ft 435 kts 265°
2026-05-03 20:37 40.16739 -74.93539 28602 ft 437 kts 265°
2026-05-03 20:37 40.16419 -74.97505 28997 ft 439 kts 265°
2026-05-03 20:38 40.16096 -75.01482 29366 ft 442 kts 265°
2026-05-03 20:38 40.15771 -75.05491 29729 ft 443 kts 265°
2026-05-03 20:38 40.15443 -75.09492 30186 ft 442 kts 265°
2026-05-03 20:38 40.15116 -75.13482 30642 ft 441 kts 265°
2026-05-03 20:39 40.14787 -75.17471 31089 ft 441 kts 265°
2026-05-03 20:39 40.14458 -75.21449 31474 ft 440 kts 264°
2026-05-03 20:39 40.14127 -75.25431 31869 ft 440 kts 264°
2026-05-03 20:39 40.13796 -75.29395 32294 ft 439 kts 264°
2026-05-03 20:40 40.13465 -75.33347 32703 ft 437 kts 264°
2026-05-03 20:40 40.13245 -75.35965 32927 ft 437 kts 264°
2026-05-03 20:40 40.12911 -75.39921 33227 ft 438 kts 264°
2026-05-03 20:40 40.12570 -75.43879 33577 ft 437 kts 264°
2026-05-03 20:41 40.12224 -75.47837 33952 ft 436 kts 264°
2026-05-03 20:41 40.11882 -75.51722 34290 ft 435 kts 264°
2026-05-03 20:41 40.11535 -75.55656 34594 ft 435 kts 263°
2026-05-03 20:41 40.11191 -75.59575 34887 ft 435 kts 263°
2026-05-03 20:42 40.10844 -75.63503 35159 ft 435 kts 263°
2026-05-03 20:42 40.10495 -75.67429 35460 ft 434 kts 263°
2026-05-03 20:42 40.10146 -75.71340 35715 ft 434 kts 263°
2026-05-03 20:42 40.09796 -75.75265 35929 ft 435 kts 263°
2026-05-03 20:43 40.09442 -75.79216 35986 ft 439 kts 263°
2026-05-03 20:43 40.08731 -75.87144 36048 ft 438 kts 263°
2026-05-03 20:44 40.08033 -75.94933 36055 ft 432 kts 263°
2026-05-03 20:44 40.07329 -76.02718 36057 ft 431 kts 263°
2026-05-03 20:45 40.06621 -76.10485 36059 ft 430 kts 263°
2026-05-03 20:45 40.05912 -76.18249 36058 ft 431 kts 263°
2026-05-03 20:46 40.05193 -76.26036 36058 ft 432 kts 263°
2026-05-03 20:46 40.04497 -76.33531 36058 ft 434 kts 263°
2026-05-03 20:47 40.03768 -76.41320 36059 ft 435 kts 263°
2026-05-03 20:47 40.03316 -76.49199 36063 ft 436 kts 269°
2026-05-03 20:48 40.03773 -76.57114 36068 ft 438 kts 275°
2026-05-03 20:48 40.04447 -76.65024 36069 ft 438 kts 275°
2026-05-03 20:49 40.05100 -76.72938 36057 ft 439 kts 275°
2026-05-03 20:49 40.05738 -76.80810 36059 ft 438 kts 275°
2026-05-03 20:50 40.06370 -76.88728 36069 ft 439 kts 275°
2026-05-03 20:50 40.06996 -76.96648 36071 ft 439 kts 275°
2026-05-03 20:51 40.07617 -77.04574 36073 ft 439 kts 275°
2026-05-03 20:51 40.08207 -77.12175 36065 ft 439 kts 275°
2026-05-03 20:52 40.08818 -77.20111 36065 ft 438 kts 275°
2026-05-03 20:52 40.09417 -77.27980 36062 ft 438 kts 275°
2026-05-03 20:53 40.10016 -77.35904 36060 ft 438 kts 275°
2026-05-03 20:53 40.10610 -77.43820 36065 ft 437 kts 275°
2026-05-03 20:54 40.11194 -77.51705 36072 ft 436 kts 275°
2026-05-03 20:54 40.12061 -77.63517 36080 ft 435 kts 275°
2026-05-03 20:55 40.12632 -77.71379 36069 ft 434 kts 275°
2026-05-03 20:55 40.13197 -77.79227 36084 ft 433 kts 275°
2026-05-03 20:56 40.13583 -77.87069 36092 ft 432 kts 271°
2026-05-03 20:56 40.13665 -77.94945 36085 ft 434 kts 270°
2026-05-03 20:57 40.13731 -78.02793 36092 ft 435 kts 270°
2026-05-03 20:57 40.13806 -78.10707 36094 ft 435 kts 271°
2026-05-03 20:58 40.13884 -78.18628 36090 ft 435 kts 271°
2026-05-03 20:58 40.13957 -78.26546 36086 ft 436 kts 270°
2026-05-03 20:59 40.14023 -78.34471 36088 ft 436 kts 270°
2026-05-03 20:59 40.14086 -78.42408 36083 ft 436 kts 270°
2026-05-03 21:00 40.14134 -78.49003 36084 ft 436 kts 270°
2026-05-03 21:00 40.14192 -78.58194 36082 ft 434 kts 270°
2026-05-03 21:01 40.14237 -78.66091 36089 ft 434 kts 270°
2026-05-03 21:01 40.14278 -78.73981 36086 ft 434 kts 270°
2026-05-03 21:02 40.14312 -78.81870 36089 ft 434 kts 270°
2026-05-03 21:02 40.14340 -78.89752 36099 ft 434 kts 270°
2026-05-03 21:03 40.14365 -78.97639 36101 ft 434 kts 270°
2026-05-03 21:03 40.14384 -79.05470 36106 ft 434 kts 270°
2026-05-03 21:04 40.14399 -79.13356 36103 ft 433 kts 270°
2026-05-03 21:04 40.14484 -79.21224 36112 ft 433 kts 272°
2026-05-03 21:05 40.14689 -79.29086 36065 ft 433 kts 272°
2026-05-03 21:05 40.14892 -79.36927 36047 ft 430 kts 272°
2026-05-03 21:06 40.15075 -79.44726 36063 ft 429 kts 272°
2026-05-03 21:06 40.15237 -79.52224 36057 ft 428 kts 272°
2026-05-03 21:07 40.15401 -79.60016 36058 ft 428 kts 272°
2026-05-03 21:07 40.15556 -79.67751 36059 ft 428 kts 272°
2026-05-03 21:08 40.15706 -79.75539 36051 ft 428 kts 272°